Weather History for Livingston, MT

Change the Weather History Date:

Tuesday, November 20, 2012

  Actual Average Record
Temperature  
Mean Temperature 56 °F 32 °F  
Max Temperature 60 °F 42 °F 72 °F (2002)
Min Temperature 52 °F 23 °F -10 °F (1975)
Degree Days  
Heating Degree Days 9 33  
Month to date heating degree days 581  
Since 1 July heating degree days 1609  
Growing Degree Days 6 (Base 50)    
Moisture  
Dew Point 31 °F    
Average Humidity 40    
Maximum Humidity 45    
Minimum Humidity 35    
Precipitation  
Precipitation 0.00 in 0.02 in 0.41 in (1962)
Month to date precipitation 0.39  
Year to date precipitation 14.09  
Sea Level Pressure  
Sea Level Pressure 29.82 in    
Wind  
Wind Speed 34 mph (SW)    
Max Wind Speed 41 mph    
Max Gust Speed 59 mph    
Visibility 10 miles    
Events      
T = Trace of Precipitation, MM = Missing Value Source: NWS Daily Summary

Daily Weather History Graph

Daily Weather History Graph

Search for Another Location

Airport:

Trip Planner

Search our weather history database for the weather conditions in past years. The results will help you decide how hot, cold, wet, or windy it might be!

Date:

Astronomy

Nov. 20, 2012 Rise Set
Actual Time 7:28 AM MST 4:45 PM MST
Civil Twilight 6:56 AM MST 5:18 PM MST
Nautical Twilight 6:19 AM MST 5:54 PM MST
Astronomical Twilight 5:44 AM MST 6:30 PM MST
Moon 12:54 PM MST (11/20) No Moon Set
Length of Visible Light 10h 22m
Length of Day
9h 16m
First Quarter, 52% of the Moon is Illuminated
Nov 20
First Quarter
Nov 28
Full
Dec 6
Last Quarter
Dec 13
New
Dec 19
First Quarter

Hourly Weather History & Observations

Time (MST) Temp. Dew Point Humidity Pressure Visibility Wind Dir Wind Speed Gust Speed Precip Events Conditions
12:53 AM 52.0 °F 30.9 °F 45% 29.86 in 10.0 mi SW 36.8 mph 54.1 mph N/A   Clear
1:53 AM 53.1 °F 30.0 °F 41% 29.86 in 10.0 mi SW 28.8 mph 50.6 mph N/A   Partly Cloudy
2:53 AM 54.0 °F 30.0 °F 40% 29.85 in 10.0 mi SW 41.4 mph 58.7 mph N/A   Clear
3:53 AM 53.1 °F 30.0 °F 41% 29.86 in 10.0 mi SW 35.7 mph 46.0 mph N/A   Clear
5:53 AM 53.1 °F 30.0 °F 41% 29.87 in 10.0 mi WSW 26.5 mph 39.1 mph N/A   Clear
6:53 AM 53.1 °F 30.9 °F 43% 29.88 in 10.0 mi SW 31.1 mph 40.3 mph N/A   Clear
7:53 AM 52.0 °F 30.9 °F 45% 29.87 in 10.0 mi SW 34.5 mph 44.9 mph N/A   Clear
8:53 AM 55.0 °F 30.9 °F 40% 29.87 in 10.0 mi SW 38.0 mph 47.2 mph N/A   Clear
9:53 AM 57.9 °F 30.9 °F 36% 29.84 in 10.0 mi SW 40.3 mph 51.8 mph N/A   Clear
10:53 AM 57.0 °F 30.9 °F 37% 29.85 in 10.0 mi SW 33.4 mph 46.0 mph N/A   Clear
11:53 AM 60.1 °F 32.0 °F 35% 29.81 in 10.0 mi SW 31.1 mph 43.7 mph N/A   Clear
12:53 PM 59.0 °F 30.9 °F 35% 29.80 in 10.0 mi SW 35.7 mph 46.0 mph N/A   Clear
1:53 PM 57.9 °F 30.9 °F 36% 29.78 in 10.0 mi SW 29.9 mph 41.4 mph N/A   Clear
2:53 PM 55.9 °F 30.9 °F 39% 29.78 in 10.0 mi SSW 34.5 mph 47.2 mph N/A   Clear
3:53 PM 55.0 °F 32.0 °F 42% 29.82 in 10.0 mi SW 29.9 mph 46.0 mph N/A   Clear
4:53 PM 54.0 °F 32.0 °F 43% 29.83 in 10.0 mi SSW 33.4 mph 43.7 mph N/A   Clear
5:53 PM 54.0 °F 32.0 °F 43% 29.82 in 10.0 mi SW 33.4 mph 44.9 mph N/A   Clear
6:53 PM 53.1 °F 32.0 °F 45% 29.82 in 10.0 mi SW 32.2 mph 40.3 mph N/A   Clear
7:53 PM 53.1 °F 32.0 °F 45% 29.80 in 10.0 mi SSW 38.0 mph 49.5 mph N/A   Clear
8:53 PM 53.1 °F 30.9 °F 43% 29.80 in 10.0 mi SW 32.2 mph 41.4 mph N/A   Clear
9:53 PM 53.1 °F 30.0 °F 41% 29.75 in 10.0 mi SW 31.1 mph 43.7 mph N/A   Clear
10:53 PM 54.0 °F 28.9 °F 38% 29.74 in 10.0 mi SW 34.5 mph 46.0 mph N/A   Clear
11:53 PM 54.0 °F 28.0 °F 37% 29.74 in 10.0 mi SW 31.1 mph 39.1 mph N/A   Partly Cloudy